Location: Cuiry
(49.3858°N, 3.7708°E)
Time: 07:15:02
(UTC+00:00)

Cosmos 1980 Rocket - Pass Details

Date: 12 January 2026
Orbit: 829 x 848 km, 71.0° (Epoch: 18 February)

Event Time Altitude Azimuth Distance (km) Brightness Sun altitude
Rises 18:25:01 0° 334° (NNW) 3,383 5.6 -21.2°
Reaches altitude 10° 18:28:20 10° 354° (N) 2,446 4.6 -21.8°
Enters shadow 18:30:29 16° 16° (NNE) 2,055 4.0 -22.1°
